Overview Statistics Trail Chart Weather Telemetry Raw packets
 

This is the latest recevied weather packets stored in our database for station/object WI0K. If no packets are shown the sender has not sent any weather packets the latest 10 day(s).

<< 32 33 34 35 36 37 38 >>
Time Temp. Humidity Pressure Rain* Wind** Luminosity Snow
1788447116 22.78° C 46% 1018.5 hPa 0 mm - 418 W/m² -
1788446800 23.33° C 42% 1018.5 hPa 0 mm - 400 W/m² -
1788446499 22.78° C 42% 1018.4 hPa 0 mm - 378 W/m² -
1788446199 22.22° C 43% 1018.5 hPa 0 mm - 360 W/m² -
1788445898 21.67° C 45% 1018.5 hPa 0 mm - 330 W/m² -
1788445616 21.11° C 46% 1018.5 hPa 0 mm - 322 W/m² -
1788445297 21.11° C 46% 1018.5 hPa 0 mm - 308 W/m² -
1788444996 20.56° C 49% 1018.5 hPa 0 mm - 284 W/m² -
1788444696 20.56° C 48% 1018.5 hPa 0 mm - 266 W/m² -
1788444394 20° C 49% 1018.5 hPa 0 mm - 252 W/m² -
1788444094 20° C 55% 1018.4 hPa 0 mm - 233 W/m² -
1788443793 20° C 53% 1018.4 hPa 0 mm - 212 W/m² -
1788443492 19.44° C 53% 1018.3 hPa 0 mm - 194 W/m² -
1788443191 18.89° C 55% 1018.4 hPa 0 mm - 180 W/m² -
1788442891 18.33° C 54% 1018.3 hPa 0 mm - 158 W/m² -
1788442589 18.33° C 54% 1018.4 hPa 0 mm - 141 W/m² -
1788442289 17.78° C 55% 1018.2 hPa 0 mm - 131 W/m² -
1788441988 17.22° C 55% 1018.2 hPa 0 mm - 115 W/m² -
1788441687 16.67° C 56% 1018.1 hPa 0 mm - 100 W/m² -
1788441387 15.56° C 60% 1018.1 hPa 0 mm - 86 W/m² -
1788441085 15° C 64% 1018.2 hPa 0 mm - 70 W/m² -
1788440785 14.44° C 67% 1018.2 hPa 0 mm - 58 W/m² -
1788440484 14.44° C 68% 1018.2 hPa 0 mm - 30 W/m² -
1788440183 13.89° C 70% 1018.2 hPa 0 mm - 23 W/m² -
1788439882 13.89° C 69% 1018.3 hPa 0 mm - 19 W/m² -

* Rain latest hour (hover to see other rain measurements)
** Current wind speed in m/s (hover to see current wind gust speed)